Location: ???? ???????
(44.6563°N, 135.3891°E)
Time: 21:17:17
(UTC+00:00)

Daily predictions for brighter satellites

Satellite Brightness Start Highest point End
(mag) Time Altitude Azimuth Time Altitude Azimuth Time Altitude Azimuth
Cosmos 2360 Rocket 4.2 19:10:05 19° NNE 19:12:00 22° NE 19:16:17 10° E
NOSS 3-1 (C) 4.0 19:14:22 67° N 19:15:22 76° NE 19:24:17 10° SE
Cosmos 2333 Rocket 3.6 19:18:05 29° NNE 19:19:40 34° NE 19:24:52 10° ESE
Aureole 1 Rocket 4.4 19:23:53 64° SSW 19:23:53 64° SSW 19:30:09 10° S
Cosmos 2219 Rocket 4.4 19:25:08 13° N 19:28:14 19° NE 19:32:08 10° E
Cosmos 2322 Rocket 3.6 19:34:16 24° N 19:36:53 35° NE 19:42:02 10° ESE
USA 59 Rocket 1.8 19:39:45 25° SSE 19:39:45 25° SSE 19:42:10 10° SSE
COSMOS 2455 3.4 19:40:13 44° S 19:40:13 44° S 19:44:25 10° SSE
Cosmos 2058 Rocket 4.4 19:47:22 21° NNE 19:49:46 38° ENE 19:53:51 10° SE
Cosmos 2026 Rocket 4.3 19:45:49 10° S 19:51:45 63° E 19:57:47 10° NNE
SKYMED 2 4.2 19:48:06 10° SSE 19:52:19 55° ENE 19:53:13 45° NNE
Cosmos 841 Rocket 4.5 20:02:15 32° N 20:02:15 32° N 20:05:18 10° NNE
Cosmos 2237 4.3 20:01:01 54° SW 20:01:01 54° SW 20:06:06 10° S
NOAA 12 4.4 19:56:44 10° NNE 20:02:00 65° ESE 20:07:12 10° S
Meteor 2-3 Rocket 3.6 19:58:55 10° SSW 20:04:40 83° W 20:10:22 10° N
COSMOS 2406 3.2 20:04:52 58° WNW 20:04:52 58° WNW 20:10:29 10° NNE
Cosmos 2082 Rocket 3.5 20:08:04 24° NNW 20:08:04 24° NNW 20:10:52 10° N
SL-16 R/B 2.1 20:04:18 45° NNW 20:06:10 87° WSW 20:11:49 10° SSE
ATLAS 2AS CENTAUR R/B 4.4 20:01:24 10° S 20:07:32 32° ESE 20:13:31 10° NE
Meteor 1-26 Rocket 4.5 20:04:17 10° N 20:09:49 67° ENE 20:15:32 10° SSE
Helios 1A Rocket 3.3 20:10:34 10° SSE 20:13:47 46° ENE 20:14:32 38° NNE
Cosmos 405 Rocket 4.1 20:16:19 10° SSE 20:19:15 32° E 20:22:13 10° NNE
Cosmos 1428 Rocket 4.5 20:13:34 10° SSW 20:19:40 55° WNW 20:25:51 10° N
Cosmos 1092 Rocket 3.9 20:14:40 10° S 20:20:57 89° W 20:27:13 10° N
Nadezhda 4 Rocket 4.2 20:15:55 10° SSW 20:21:54 45° WNW 20:27:54 10° N
NOSS 3-1 (A) 4.0 20:19:55 26° NW 20:24:39 89° SW 20:33:41 10° SE
Okean 1 3.0 20:27:58 36° N 20:29:18 79° E 20:32:51 10° SSE
Meteor 2-20 4.3 20:24:10 10° NNW 20:30:14 68° W 20:36:14 10° S
SL-24 R/B 4.2 20:25:20 10° N 20:30:32 71° WNW 20:35:02 10° SSW
Cosmos 2278 3.6 20:28:13 30° NW 20:30:59 65° WSW 20:36:33 10° SSE
SL-4 R/B 1.9 20:31:31 47° N 20:31:42 48° NNE 20:34:47 10° E
USA 234 4.3 20:28:53 10° ENE 20:34:25 30° N 20:37:26 21° NW
Cosmos-2242 2.8 20:33:24 23° NNW 20:35:57 74° W 20:40:07 10° S
COSMO-SKYMED 1 2.3 20:34:10 10° S 20:38:15 71° WSW 20:40:49 22° NNW
Cosmos 1626 Rocket 3.7 20:37:37 10° S 20:42:01 74° E 20:46:24 10° NNE
IRS-1D 3.6 20:38:28 10° N 20:43:17 49° WNW 20:48:12 10° SW
CZ-4 R/B 3.8 20:40:26 10° N 20:44:55 51° WNW 20:49:21 10° SW
Cosmos 1892 Rocket 4.2 20:44:08 10° SW 20:48:22 31° WNW 20:51:59 10° N
IGS 5A 3.9 20:44:11 10° NNE 20:48:10 62° E 20:52:08 10° S
NOSS 8 (A) 4.1 20:48:23 40° NNW 20:49:20 79° NE 20:52:42 10° SE
Meteor 2-20 Rocket 4.2 20:45:56 10° NNW 20:51:36 64° W 20:57:13 10° S
Cosmos 2360 Rocket 2.1 20:51:51 15° NNW 20:56:32 69° WSW 21:02:04 10° SSE
Cosmos 1833 4.1 20:58:21 10° SSW 21:03:59 81° WNW 21:09:44 10° NNE
Cosmos 2333 Rocket 2.7 21:00:08 18° NW 21:04:01 41° WSW 21:09:21 10° S
Cosmos 2237 Rocket 4.4 21:04:32 10° N 21:08:17 18° NE 21:12:00 10° E
ARIANE 5 R/B 4.0 21:04:24 10° NNE 21:09:21 41° E 21:14:15 10° SSE
Cosmos 2219 Rocket 2.2 21:07:14 10° NNW 21:12:55 85° WSW 21:18:32 10° SSE
Cosmos 1812 Rocket 3.6 21:12:05 10° N 21:16:25 84° E 21:20:46 10° S
Cosmos 1814 Rocket 4.3 21:13:55 10° SW 21:18:54 43° WNW 21:23:58 10° N
Cosmos 1743 2.3 21:16:50 10° SSW 21:20:00 56° W 21:23:13 10° N
Okean 1-7 Rocket 4.0 21:15:35 10° S 21:20:02 67° E 21:24:29 10° NNE
Cosmos 2322 Rocket 2.7 21:16:06 12° NW 21:20:57 39° WSW 21:26:10 10° S
Cosmos 1602 Rocket 3.5 21:16:31 10° S 21:20:58 82° W 21:25:25 10° N
IRIDIUM 104 4.4 21:16:20 10° SSW 21:21:26 54° W 21:26:33 10° N
SMAP 3.2 21:19:39 10° NNE 21:24:20 80° ESE 21:29:00 10° S
Cosmos 2058 Rocket 4.4 21:24:33 12° NW 21:27:19 20° W 21:30:32 10° SW
Meteor 1-10 Rocket 4.5 21:22:01 10° N 21:27:58 82° E 21:33:55 10° SSE
CBERS-1 4.0 21:23:39 10° N 21:28:42 63° WNW 21:33:42 10° SSW
BREEZE-M DEB (TANK) 1.5 21:27:43 19° WNW 21:28:54 89° SSE 21:31:42 10° ESE
Landsat 7 4.1 21:24:24 10° NNE 21:29:04 73° ESE 21:33:42 10° S
ATLAS 3B R/B 3.6 21:21:51 10° NNW 21:29:32 53° NE 21:36:50 10° ESE
Meteor 1-19 Rocket 4.4 21:24:48 10° N 21:30:40 88° W 21:36:38 10° S
[s.n.66875] 4.4 21:29:07 10° SSW 21:30:44 15° SSE 21:32:22 10° ESE
[s.n.66873] 4.4 21:29:48 10° SSW 21:31:28 15° SSE 21:33:07 10° ESE
[s.n.66876] 4.4 21:30:17 10° SSW 21:31:57 15° SSE 21:33:36 10° ESE
BREEZE M DEB (TANK) 1.8 21:29:43 10° WSW 21:32:04 74° NNW 21:36:56 10° ENE
Cosmos 2151 2.9 21:28:35 10° SSW 21:32:37 61° W 21:36:42 10° N
[s.n.66874] 4.4 21:31:05 10° SSW 21:32:46 16° SSE 21:34:27 10° ESE
Cosmos 2322 4.3 21:27:34 10° NNW 21:33:10 59° ENE 21:38:44 10° SE
BREEZE-M DEB (TANK) 3.8 21:30:59 13° WNW 21:33:20 45° NNE 21:39:48 10° E
[s.n.66872] 4.4 21:31:53 10° SSW 21:33:35 16° SSE 21:35:18 10° ESE
Cosmos 1570 Rocket 4.4 21:28:24 10° S 21:33:40 72° ESE 21:39:00 10° NNE
Cosmos 1238 Rocket 3.1 21:31:18 10° N 21:34:04 46° E 21:36:52 10° SSE
[s.n.66871] 4.4 21:32:26 10° SSW 21:34:09 16° SSE 21:35:52 10° ESE
[s.n.66870] 4.4 21:33:16 10° SSW 21:35:01 16° SSE 21:36:45 10° ESE
Cosmos 1484 Rocket 3.4 21:32:11 10° NNW 21:35:04 26° WNW 21:37:55 10° SW
[s.n.66869] 4.4 21:34:05 10° SSW 21:35:51 16° SSE 21:37:36 10° ESE
Cosmos 2285 Rocket 4.4 21:30:22 10° NNW 21:36:21 43° WSW 21:42:20 10° S
[s.n.66868] 4.4 21:34:43 10° SSW 21:36:29 17° SSE 21:38:14 10° ESE
[s.n.66867] 4.4 21:35:30 10° SSW 21:37:17 17° SSE 21:39:05 10° ESE
[s.n.66866] 4.4 21:36:15 10° SSW 21:38:04 17° SSE 21:39:52 10° ESE
Cosmos 44 3.9 21:33:58 10° SSW 21:38:25 59° ESE 21:43:11 10° NE
[s.n.66865] 4.4 21:36:48 10° SSW 21:38:37 17° SSE 21:40:27 10° ESE
[s.n.66860] 4.3 21:37:29 10° SSW 21:39:19 17° SSE 21:41:09 10° ESE
[s.n.66864] 4.3 21:38:07 10° SSW 21:39:58 17° SSE 21:41:49 10° ESE
[s.n.66863] 4.3 21:38:44 10° SSW 21:40:34 18° SSE 21:42:27 10° ESE
[s.n.66861] 4.3 21:39:34 10° SSW 21:41:26 18° SSE 21:43:19 10° ESE
[s.n.66862] 4.3 21:40:12 10° SSW 21:42:05 18° SSE 21:44:00 10° ESE
[s.n.66859] 4.3 21:40:56 10° SSW 21:42:49 18° SSE 21:44:44 10° ESE
[s.n.66858] 4.3 21:41:35 10° SSW 21:43:31 18° SSE 21:45:27 10° ESE
[s.n.66857] 4.2 21:42:11 10° SSW 21:44:07 18° SSE 21:46:03 10° ESE
ISS -1.4 21:41:37 10° SSW 21:44:32 28° SE 21:47:29 10° ENE
[s.n.66856] 4.2 21:42:45 10° SSW 21:44:41 19° SSE 21:46:39 10° ESE
Cosmos 1437 Rocket 2.6 21:41:47 10° NNW 21:45:09 52° W 21:48:32 10° S
Cosmos 2221 2.8 21:41:16 10° NNW 21:45:12 43° W 21:49:07 10° SSW
[s.n.66855] 4.2 21:43:27 10° SSW 21:45:23 19° SSE 21:47:21 10° ESE
[s.n.66854] 4.2 21:44:02 10° SSW 21:46:00 19° SSE 21:47:58 10° ESE
[s.n.66853] 4.2 21:44:46 10° SSW 21:46:44 19° SSE 21:48:44 10° ESE
[s.n.66852] 4.2 21:45:32 10° SSW 21:47:32 19° SSE 21:49:31 10° ESE
[s.n.66851] 4.2 21:46:04 10° SSW 21:48:04 20° SSE 21:50:04 10° ESE
CZ-2D R/B 2.7 21:45:00 10° N 21:48:08 62° WNW 21:51:15 10° SSW
[s.n.66850] 4.2 21:46:37 10° SSW 21:48:38 20° SSE 21:50:39 10° ESE
AQUARIUS 4.2 21:44:44 10° NNE 21:49:10 84° ESE 21:53:35 10° SSW
SL-16 R/B 3.9 21:46:58 10° WNW 21:49:20 13° W 21:51:41 10° WSW
[s.n.66849] 4.1 21:47:21 10° SSW 21:49:22 20° SSE 21:51:24 10° ESE
[s.n.66848] 4.1 21:47:53 10° SSW 21:49:55 20° SSE 21:51:57 10° ESE
Thor Agena Rocket 3.6 21:46:45 10° N 21:51:42 57° WNW 21:56:36 10° SSW
Cosmos 2315 Rocket 4.1 21:45:25 10° N 21:51:48 86° W 21:58:06 10° S
Cosmos 1707 2.5 21:49:35 10° NNW 21:52:35 43° W 21:55:33 10° SSW
Cosmos 405 Rocket 4.1 21:51:13 10° W 21:52:56 13° WNW 21:54:39 10° NW
Cosmos 1825 Rocket 3.5 21:49:43 10° SSW 21:54:08 74° W 21:58:33 10° N
COSMOS 2428 2.9 21:51:17 10° NNW 21:57:01 78° ENE 22:02:43 10° SSE
ATLAS 2AS CENTAUR R/B 2.8 21:51:07 10° SW 21:58:05 60° NW 22:04:54 10° NNE
